User: anonymous   Login
Location: Trondheim
(63.4170°N, 10.4170°E)
Time: 17:20:52
(UTC+02:00)
Language:

Iridium 82 - Orbit

View from above orbital plane
View from above orbital plane
View from above satellite
View from above satellite

Ground track
Ground track

The orbit data is extracted from the following two-line orbital elements,

1 25467U 98051A   17296.46643967  .00001410  00000-0  10624-3 0  9999
2 25467  86.3985 322.0066 0180287 294.2636  63.9847 14.89533096  5934
Epoch (UTC): 23 October 2017 11:11:40
Eccentricity: 0.0180287
inclination: 86.3985°
perigee height: 473 km
apogee height: 725 km
right ascension of ascending node: 322.0066°
argument of perigee: 294.2636°
revolutions per day: 14.89533096
mean anomaly at epoch: 63.9847°
orbit number at epoch: 593

The dashed part of the orbit path shows where the satellite is in the earth's shadow,  

DLR